Wetbulb
58.35 61.25 61.35 60.65 59.22 59.66 59.89 59.85 60.35 60.76 60.58 61.02 60.64 59.85 61.45 62.31 62.87 64.63 66.27 71.33 71.23 71.19 71.87 71.94 71.08 70.89 70.88 70.50 70.56 69.43 69.31 70.01 70.88 71.08 70.37 69.88 68.80 67.52 66.78 65.99 65.44 65.46 65.19
59.83 60.78 58.42 58.80 58.06 58.34 59.21 59.43 59.67 59.39 59.80 59.91 59.59 59.85 61.17 62.66 63.36 64.96 64.98 68.01 70.11 69.99 71.20 71.38 71.08 71.36 71.05 70.47 69.20 68.49 69.38 70.19 70.45 70.38 69.34 68.66 67.88 66.39 65.80 65.54 65.29 65.00 64.70
59.56 59.00 58.03 58.07 58.39 58.20 58.33 58.83 58.86 59.28 58.99 59.75 59.22 59.55 61.94 62.93 63.59 64.59 65.85 66.81 68.93 69.99 69.89 70.70 70.82 70.95 70.36 70.66 69.21 68.63 69.01 70.20 70.36 69.36 68.63 67.81 66.99 66.43 65.51 65.51 65.27 64.57 64.13
60.11 58.60 57.95 58.01 58.40 57.56 57.56 57.72 57.91 57.93 58.21 58.51 59.02 59.12 61.01 62.39 63.73 64.56 65.43 66.06 65.66 67.24 69.67 70.24 70.84 70.01 70.59 69.30 69.09 69.36 70.05 70.54 69.57 68.76 67.87 67.19 65.88 66.15 65.45 65.05 64.50 64.19 63.80
60.14 58.22 58.31 58.27 58.10 57.26 56.76 57.12 56.64 57.58 57.08 57.56 58.57 59.21 60.31 60.95 64.14 64.76 65.05 64.98 65.91 66.86 67.79 69.83 69.89 69.65 69.15 69.15 69.94 70.17 70.82 70.03 68.99 68.17 67.56 66.73 65.74 65.59 65.16 64.54 64.16 63.85 63.29
60.15 58.84 58.33 58.22 57.96 56.38 56.14 56.74 56.30 57.42 57.46 57.42 60.40 59.78 59.66 59.89 63.23 62.86 65.33 65.57 66.36 65.73 66.91 67.52 67.74 68.05 68.70 69.78 69.78 70.45 70.61 69.65 68.17 67.32 67.10 66.47 66.21 65.22 64.84 64.44 63.88 63.43 63.13
59.70 58.29 58.39 58.02 57.48 56.36 56.02 56.56 56.74 56.60 56.88 57.43 56.70 56.84 57.71 60.18 61.14 63.64 64.47 65.59 65.71 66.00 66.51 67.25 67.09 66.82 67.38 69.63 69.50 69.84 70.09 69.24 67.94 67.12 66.46 65.96 65.97 65.12 64.51 64.46 63.78 63.36 62.93
61.16 59.41 58.78 57.92 57.56 56.74 56.18 56.82 56.82 55.88 56.28 57.57 55.58 56.68 54.68 57.87 61.27 62.03 64.71 64.98 64.10 65.71 65.57 65.67 65.88 65.53 65.95 66.80 66.75 68.10 69.00 68.55 68.02 66.78 66.06 65.56 65.78 64.76 64.36 64.04 63.59 63.07 62.81
61.63 60.15 59.31 58.06 57.78 56.96 56.18 56.20 56.90 56.64 55.74 57.06 57.48 58.02 55.18 53.54 57.08 62.62 62.81 63.56 63.29 64.76 64.99 64.66 64.86 65.61 65.94 66.10 66.58 67.30 68.40 68.16 67.44 66.45 65.38 65.64 65.29 64.47 63.90 63.41 63.07 62.79 62.41
60.45 60.17 59.31 58.81 58.13 57.24 56.28 57.06 58.26 57.52 57.40 56.40 58.11 60.40 59.54 59.57 56.12 57.19 62.19 62.54 63.70 64.09 64.32 64.25 64.41 65.16 65.50 65.79 66.87 67.31 67.01 67.42 67.32 65.86 65.32 65.12 64.71 64.29 63.77 63.29 63.02 62.66 62.57
61.12 60.38 59.35 58.60 57.61 57.48 57.26 58.57 57.50 57.92 58.04 57.83 57.92 58.73 58.77 58.29 59.57 59.17 57.59 59.88 62.31 63.40 63.91 64.09 64.35 64.42 65.21 65.85 65.86 66.08 65.60 66.04 65.60 65.31 65.43 65.15 64.60 64.10 63.72 63.24 63.03 62.78 62.61
60.31 59.07 59.60 58.04 57.82 57.39 57.78 57.91 58.15 58.25 57.48 59.18 60.25 60.61 59.55 57.67 57.93 59.00 58.97 59.33 59.45 61.15 62.83 63.81 64.14 64.56 64.82 65.42 66.60 65.34 64.26 63.64 62.85 63.21 63.96 64.59 64.90 64.28 63.68 63.11 63.02 62.59 62.33
56.24 56.72 57.75 58.34 57.47 58.27 59.16 58.84 58.51 59.88 57.69 59.38 59.35 59.15 58.97 59.91 60.77 60.92 60.19 58.81 58.19 60.36 60.99 62.74 63.26 64.18 64.97 64.82 65.61 65.22 64.00 61.74 61.07 60.85 61.50 62.57 63.43 63.89 63.97 63.90 63.32 62.76 61.92
56.52 57.08 58.31 58.66 59.36 59.70 60.28 59.50 60.32 60.60 59.79 59.31 59.79 59.69 59.58 61.93 62.28 61.86 59.83 58.55 57.06 57.87 59.24 60.27 62.82 63.90 64.30 64.39 64.62 64.40 62.46 61.06 60.08 59.37 59.40 60.20 61.18 62.27 62.41 62.58 62.92 62.64 62.53
58.20 58.29 58.60 58.24 59.46 59.97 59.63 60.57 60.82 60.50 61.14 60.84 61.00 60.68 60.78 62.02 62.04 61.35 61.31 60.42 58.08 55.42 56.46 59.58 60.24 63.10 63.62 63.76 64.06 62.49 61.64 60.92 60.58 59.19 58.61 59.08 59.24 59.74 60.04 60.31 60.53 60.40 60.50
57.57 58.33 58.65 58.91 59.27 59.59 59.71 60.59 59.92 59.68 61.44 61.81 62.12 62.00 61.63 61.24 61.40 61.43 60.75 60.59 60.31 58.23 56.22 59.93 60.79 62.27 62.91 62.86 63.96 61.08 60.83 60.89 60.19 59.08 59.29 58.87 57.82 57.89 58.30 58.21 58.34 58.69 59.07
58.11 58.85 59.15 59.51 59.65 59.60 59.63 59.77 59.22 60.00 61.19 61.46 62.22 61.77 60.69 61.20 61.04 60.74 60.97 60.88 60.00 59.80 57.78 59.92 61.62 62.65 61.18 61.40 61.56 60.93 61.10 59.86 58.59 57.97 58.69 57.76 56.42 56.16 56.23 56.44 56.52 56.94 57.33
58.60 59.13 59.95 60.19 60.23 59.68 59.86 60.47 60.21 60.50 60.32 60.34 61.18 61.88 61.42 61.99 60.71 61.13 60.97 60.33 60.21 60.49 59.64 58.12 59.94 61.17 61.14 61.10 61.33 60.63 59.67 59.67 57.41 58.28 57.38 56.71 55.41 54.56 54.42 54.21 54.21 54.30 54.25
59.00 60.46 60.43 60.41 60.69 60.61 60.24 60.26 59.95 59.29 60.17 60.66 61.06 61.81 61.85 61.58 60.85 60.75 60.67 60.19 60.79 61.10 60.75 59.71 59.18 60.24 59.40 60.24 58.46 57.99 56.91 54.89 56.26 58.27 56.30 55.37 54.42 53.91 53.62 53.07 52.91 52.66 51.89
59.17 59.95 60.29 61.47 61.79 61.02 61.29 60.92 59.98 58.69 58.77 59.92 61.34 61.81 62.18 61.67 60.98 60.67 60.92 60.56 60.47 60.05 60.21 59.68 58.71 57.61 56.92 55.74 55.70 55.74 54.83 55.61 54.44 54.82 55.07 53.88 53.66 53.52 52.69 52.64 53.21 53.56 51.48
59.11 60.16 60.54 61.16 61.20 61.24 62.19 61.30 60.76 60.95 60.29 59.24 59.52 61.21 60.97 61.38 59.76 60.22 61.52 60.87 60.52 59.40 59.25 56.74 55.70 55.13 54.54 53.48 51.44 52.60 53.16 53.30 54.22 53.63 50.36 50.71 50.63 50.28 51.30 52.38 54.33 54.73 52.10
58.60 58.82 59.62 59.76 59.79 61.39 51.99 54.21 59.51 61.11 61.02 60.50 59.76 60.84 60.81 59.19 58.23 56.64 57.33 57.00 58.56 57.91 56.26 55.82 54.00 53.65 52.85 53.53 53.40 52.44 53.02 52.25 52.23 53.38 50.63 51.57 50.30 49.80 49.99 49.24 50.00 48.60 48.57
55.13 56.05 56.05 56.19 55.22 57.36 50.49 52.17 55.33 61.46 61.00 60.63 60.27 60.74 62.03 62.20 59.78 60.86 54.08 53.97 54.48 53.47 55.46 56.06 54.19 53.70 53.48 54.67 54.32 52.85 52.89 52.68 52.46 53.66 53.36 52.58 51.98 51.43 51.73 51.56 49.51 48.26 46.75
54.45 53.19 53.00 52.94 53.53 54.61 48.59 50.16 53.12 61.54 61.00 60.09 60.01 59.66 60.57 60.40 59.94 57.35 55.77 55.02 55.30 55.63 56.09 57.48 55.34 54.99 54.78 55.25 55.44 54.98 53.79 53.21 54.61 55.23 54.03 53.08 50.96 52.30 52.87 46.33 48.21 48.54 47.64
53.46 53.08 52.52 51.64 51.23 49.88 46.95 48.00 56.25 59.63 59.22 57.82 57.48 57.08 57.19 56.71 49.49 47.26 54.63 53.27 50.30 48.00 46.28 47.50 51.10 49.71 48.77 49.29 52.97 57.44 55.08 53.66 50.32 50.54 49.87 51.76 47.51 46.91 47.06 46.87 47.30 47.14 45.47
54.00 53.71 52.44 51.77 49.80 47.69 45.73 48.65 54.75 57.77 55.56 53.83 53.62 54.64 49.93 52.75 44.42 45.61 53.51 53.08 50.81 49.73 47.41 46.30 44.47 42.51 41.93 43.40 46.16 49.85 52.73 48.04 45.45 45.36 49.41 47.74 46.54 45.77 45.04 46.83 45.54 45.49 44.93
MSLP
1011.34 1011.24 1011.28 1011.22 1011.21 1011.12 1011.18 1011.36 1011.46 1011.63 1011.91 1011.89 1012.16 1012.32 1012.36 1012.40 1012.37 1012.41 1012.46 1012.21 1012.28 1012.54 1012.79 1013.12 1013.77 1014.36 1014.97 1015.58 1016.45 1017.23 1017.90 1018.28 1018.86 1019.29 1019.75 1020.39 1020.41 1020.98 1021.36 1021.48 1021.97 1022.06 1022.27
1010.81 1011.03 1011.15 1011.13 1011.14 1010.92 1010.93 1011.05 1011.29 1011.54 1011.76 1011.93 1012.17 1012.14 1012.30 1012.19 1012.20 1012.24 1012.30 1012.13 1012.13 1012.36 1012.73 1013.08 1013.68 1014.28 1014.89 1015.72 1016.59 1017.18 1017.98 1018.50 1018.99 1019.55 1019.97 1020.50 1020.81 1021.08 1021.34 1021.83 1022.21 1022.44 1022.50
1010.42 1010.79 1010.84 1010.88 1010.85 1010.62 1010.70 1010.91 1011.21 1011.45 1011.72 1011.87 1012.04 1012.05 1012.19 1011.99 1011.97 1012.00 1012.17 1012.13 1012.13 1012.24 1012.68 1013.13 1013.52 1014.20 1014.90 1015.86 1016.54 1017.45 1018.05 1018.52 1019.05 1019.68 1020.08 1020.46 1021.00 1021.35 1021.64 1022.01 1022.28 1022.58 1022.84
1010.07 1010.34 1010.43 1010.44 1010.28 1010.41 1010.61 1010.81 1011.08 1011.37 1011.57 1011.75 1011.77 1011.98 1012.07 1011.85 1011.68 1011.83 1012.10 1012.28 1012.36 1012.48 1012.89 1013.08 1013.62 1014.35 1015.02 1015.70 1016.69 1017.48 1017.89 1018.44 1019.20 1019.64 1020.05 1020.32 1021.19 1021.37 1022.00 1022.40 1022.58 1022.76 1023.39
1009.66 1009.93 1010.11 1010.08 1009.94 1010.28 1010.43 1010.59 1010.91 1011.14 1011.49 1011.60 1011.68 1011.87 1011.86 1011.77 1011.74 1011.79 1012.18 1012.27 1012.30 1012.36 1012.96 1013.26 1013.79 1014.72 1015.37 1015.92 1016.65 1017.41 1017.68 1018.30 1019.17 1019.75 1019.89 1020.48 1021.20 1021.42 1022.06 1022.70 1022.75 1023.25 1023.52
1009.29 1009.52 1009.71 1009.79 1009.78 1010.09 1010.34 1010.52 1010.74 1011.01 1011.20 1011.37 1011.54 1011.75 1011.75 1011.77 1011.85 1012.04 1012.25 1012.33 1012.46 1012.59 1013.01 1013.55 1014.31 1015.22 1015.61 1016.11 1016.62 1017.31 1017.78 1018.66 1019.30 1019.79 1020.42 1020.66 1021.39 1021.77 1022.20 1022.50 1023.03 1023.43 1023.62
1008.96 1009.21 1009.34 1009.51 1009.59 1009.89 1010.08 1010.31 1010.65 1010.95 1011.26 1011.43 1011.76 1012.17 1012.20 1011.97 1011.96 1012.30 1012.46 1012.56 1012.88 1012.86 1013.24 1014.06 1014.55 1015.37 1016.09 1016.16 1016.73 1017.04 1018.17 1018.78 1019.56 1020.05 1020.84 1021.12 1021.63 1022.02 1021.99 1022.50 1023.17 1023.43 1023.86
1008.51 1008.81 1009.06 1009.26 1009.37 1009.75 1009.95 1010.15 1010.46 1010.91 1011.19 1011.33 1011.67 1011.94 1012.48 1012.71 1012.59 1012.63 1012.80 1012.96 1013.24 1013.42 1013.87 1014.23 1014.29 1015.71 1016.42 1016.88 1017.37 1017.65 1018.39 1019.17 1019.97 1020.63 1020.97 1021.42 1021.77 1021.78 1022.32 1022.75 1023.12 1023.63 1023.91
1008.09 1008.40 1008.84 1009.06 1009.26 1009.59 1009.79 1009.88 1010.19 1010.59 1011.17 1011.30 1011.16 1011.43 1011.96 1012.34 1012.83 1012.99 1013.19 1013.33 1013.50 1013.93 1014.26 1014.55 1015.37 1016.19 1016.64 1017.17 1017.79 1018.47 1018.68 1019.38 1019.87 1020.56 1021.03 1021.80 1021.74 1021.84 1022.45 1022.83 1023.07 1023.44 1023.70
1008.23 1008.42 1008.71 1008.98 1009.14 1009.36 1009.54 1009.59 1009.72 1010.11 1010.60 1011.19 1011.26 1010.93 1011.14 1011.30 1012.09 1012.67 1013.19 1013.59 1013.97 1014.41 1014.90 1015.30 1015.94 1016.52 1016.91 1017.45 1018.02 1018.59 1018.96 1019.46 1020.14 1020.72 1021.37 1021.65 1021.68 1022.03 1022.37 1022.75 1022.92 1023.36 1023.60
1008.34 1008.56 1008.78 1008.99 1009.17 1009.22 1009.33 1009.38 1009.66 1009.94 1010.18 1010.70 1011.01 1011.24 1011.26 1011.22 1011.51 1011.89 1012.71 1013.69 1014.39 1014.86 1015.52 1016.00 1016.36 1016.61 1017.32 1017.73 1018.28 1018.82 1019.13 1019.60 1020.11 1020.83 1021.23 1021.51 1021.78 1022.21 1022.51 1022.70 1022.84 1023.15 1023.30
1008.55 1008.74 1008.89 1009.06 1009.26 1009.20 1009.41 1009.48 1009.69 1010.03 1010.15 1010.31 1010.61 1010.73 1010.78 1011.03 1011.54 1010.57 1013.05 1013.73 1014.34 1015.33 1015.74 1016.24 1016.72 1017.11 1017.54 1017.99 1018.44 1018.85 1019.30 1019.77 1020.43 1021.07 1021.20 1021.57 1022.25 1022.36 1022.36 1022.53 1022.89 1023.22 1023.44
1008.99 1009.02 1009.08 1009.25 1009.33 1009.30 1009.39 1009.50 1009.68 1009.92 1010.24 1010.37 1010.47 1010.52 1010.66 1010.76 1011.09 1012.04 1013.43 1013.98 1014.64 1015.46 1016.06 1016.63 1016.76 1017.04 1017.74 1018.30 1018.61 1019.16 1019.74 1020.33 1020.90 1021.11 1021.37 1021.76 1022.16 1022.11 1022.19 1022.51 1022.90 1023.14 1023.25
1009.12 1009.15 1009.27 1009.38 1009.35 1009.41 1009.54 1009.68 1009.90 1010.17 1010.30 1010.51 1010.63 1010.81 1011.09 1011.15 1011.02 1011.50 1012.98 1014.12 1015.00 1015.52 1016.38 1016.80 1017.49 1017.63 1018.08 1018.62 1019.16 1019.53 1020.21 1020.54 1020.85 1021.13 1021.41 1021.81 1022.08 1022.10 1022.35 1022.53 1023.03 1023.16 1023.19
1009.18 1009.20 1009.47 1009.58 1009.65 1009.73 1009.72 1009.88 1010.04 1010.44 1010.57 1010.80 1010.95 1011.08 1011.41 1011.71 1011.96 1012.44 1013.26 1013.38 1014.27 1015.64 1016.75 1017.56 1017.91 1018.14 1018.55 1019.17 1019.62 1020.13 1020.49 1020.79 1021.05 1021.02 1021.51 1021.77 1021.98 1022.16 1022.29 1022.48 1023.03 1023.25 1023.24
1009.23 1009.28 1009.52 1009.69 1009.81 1009.98 1010.02 1009.93 1010.41 1010.72 1010.83 1011.22 1011.29 1011.60 1012.04 1012.34 1012.74 1013.29 1013.69 1014.28 1014.82 1015.69 1016.73 1017.55 1018.01 1018.39 1018.68 1019.49 1019.87 1020.41 1020.66 1020.78 1020.91 1021.12 1021.44 1021.58 1022.01 1022.21 1022.32 1022.54 1022.85 1022.99 1022.96
1009.36 1009.38 1009.51 1009.79 1009.98 1010.15 1010.40 1010.47 1010.94 1011.04 1011.19 1011.52 1011.82 1012.02 1012.44 1012.71 1013.15 1013.79 1014.15 1014.74 1015.52 1016.19 1017.06 1017.76 1018.14 1018.85 1019.47 1019.85 1020.27 1020.49 1020.57 1020.86 1021.16 1021.25 1021.42 1021.53 1021.66 1021.93 1022.09 1022.25 1022.47 1022.91 1022.81
1009.45 1009.50 1009.60 1009.82 1010.18 1010.45 1010.63 1010.91 1011.24 1011.70 1011.86 1012.10 1012.36 1012.55 1012.89 1013.26 1013.80 1014.30 1014.65 1015.40 1015.78 1016.61 1016.98 1017.89 1018.80 1019.28 1019.72 1020.15 1020.43 1020.70 1020.74 1020.84 1021.10 1021.23 1021.37 1021.27 1021.63 1021.78 1022.07 1022.34 1022.27 1022.41 1022.07
1009.50 1009.70 1009.82 1009.99 1010.25 1010.66 1010.99 1011.25 1011.49 1011.91 1012.22 1012.44 1012.67 1012.93 1013.25 1013.70 1014.30 1014.69 1015.11 1015.81 1016.54 1016.90 1017.26 1018.13 1019.02 1019.39 1020.01 1020.36 1020.79 1020.71 1020.87 1021.18 1020.98 1021.18 1021.31 1021.37 1021.75 1021.91 1022.15 1021.89 1021.72 1021.84 1021.90
1009.61 1009.81 1010.07 1010.24 1010.51 1010.84 1011.21 1011.62 1011.97 1012.38 1012.80 1013.10 1013.17 1013.35 1013.67 1014.03 1014.40 1015.02 1015.61 1016.18 1016.62 1017.24 1017.88 1018.46 1019.06 1019.70 1019.94 1020.17 1020.46 1020.89 1021.39 1021.18 1021.36 1021.00 1021.08 1021.11 1021.69 1021.49 1021.43 1021.57 1021.52 1021.48 1021.57
1009.73 1009.83 1010.19 1010.52 1010.84 1011.13 1011.56 1011.85 1012.21 1012.58 1012.90 1013.44 1013.78 1014.04 1014.20 1014.46 1014.88 1015.36 1015.77 1016.38 1016.97 1017.52 1018.11 1018.69 1019.23 1019.57 1019.85 1020.26 1020.62 1020.76 1020.91 1021.09 1021.16 1021.24 1021.15 1021.40 1021.58 1021.25 1020.91 1021.28 1021.23 1021.28 1020.97
1010.06 1010.12 1010.34 1010.72 1011.08 1011.36 1011.83 1012.19 1012.47 1012.87 1013.18 1013.58 1014.04 1014.43 1014.78 1015.07 1015.43 1015.76 1016.24 1016.77 1017.15 1017.50 1018.10 1018.68 1019.18 1019.50 1019.71 1019.91 1020.29 1020.53 1020.65 1021.18 1021.30 1021.10 1021.28 1021.31 1021.65 1021.48 1021.02 1020.86 1020.95 1020.85 1020.55
1010.48 1010.61 1010.86 1011.09 1011.50 1011.72 1012.13 1012.56 1012.90 1013.28 1013.50 1013.87 1014.24 1014.64 1015.09 1015.62 1015.91 1016.39 1016.86 1017.10 1017.32 1017.40 1017.33 1017.72 1018.35 1018.67 1019.05 1019.23 1019.71 1020.23 1020.53 1021.00 1021.12 1021.49 1021.30 1021.49 1021.17 1020.96 1020.85 1020.83 1020.88 1020.63 1020.97
1010.84 1011.12 1011.40 1011.54 1011.79 1012.11 1012.36 1012.69 1013.17 1013.58 1013.98 1014.38 1014.70 1015.03 1015.32 1015.83 1016.26 1016.72 1017.06 1017.20 1017.21 1017.35 1017.53 1017.62 1017.70 1017.94 1018.25 1018.80 1019.21 1019.44 1020.00 1020.68 1021.12 1020.98 1020.89 1021.58 1021.32 1021.86 1021.69 1021.48 1021.36 1021.23 1021.24
1011.18 1011.38 1011.54 1011.88 1012.17 1012.49 1012.66 1012.86 1013.32 1013.78 1014.30 1014.71 1015.05 1015.38 1015.65 1016.12 1016.41 1016.68 1017.04 1017.52 1017.52 1017.62 1017.59 1017.49 1017.31 1017.69 1018.08 1018.34 1018.64 1019.23 1020.02 1020.91 1021.67 1021.94 1021.41 1021.48 1022.59 1022.70 1022.22 1022.02 1021.91 1021.43 1021.21
1011.14 1011.48 1011.91 1011.96 1012.22 1012.67 1012.82 1013.07 1013.35 1013.88 1014.59 1014.94 1015.22 1015.43 1015.64 1015.89 1016.35 1016.79 1016.91 1017.33 1017.70 1017.79 1017.86 1018.06 1018.28 1018.64 1018.85 1019.06 1018.86 1018.92 1019.93 1021.05 1021.62 1021.94 1021.82 1022.21 1022.86 1023.07 1022.69 1022.15 1021.79 1021.34 1021.37
Wind_Speed
4 3 3 3 3 3 3 4 4 4 5 5 5 6 6 6 6 3 3 15 16 18 22 23 26 25 24 25 26 22 20 20 19 20 19 16 19 18 17 17 16 16 16
4 4 4 4 4 3 4 4 4 4 4 4 4 6 5 5 6 6 4 5 17 21 19 22 24 23 25 22 25 22 19 20 22 20 19 18 17 19 18 18 17 16 17
5 5 4 4 5 3 4 4 4 3 4 3 5 5 4 7 5 6 4 3 7 17 18 18 22 23 27 26 25 22 22 22 22 20 20 19 17 16 18 18 18 17 17
6 5 4 4 4 3 4 3 4 3 4 4 4 3 4 5 6 5 4 3 3 3 12 17 21 24 23 26 26 27 26 23 21 20 20 20 18 18 17 17 17 17 16
5 5 4 4 4 3 4 3 2 3 3 4 4 4 5 3 4 3 5 5 5 5 4 17 22 24 28 25 25 28 26 22 21 20 21 21 19 20 18 16 17 16 15
5 4 3 5 3 3 3 2 3 2 2 3 3 4 3 3 2 4 5 3 4 4 7 10 12 14 24 26 27 27 26 24 21 20 18 19 18 19 18 18 16 14 14
5 5 4 4 3 4 4 4 3 4 3 2 3 1 2 3 4 4 5 5 5 5 8 9 7 9 10 21 24 26 26 22 21 21 17 17 17 19 18 17 15 14 12
6 5 5 4 4 3 4 5 4 2 2 4 4 3 3 3 3 2 4 5 7 7 7 10 10 10 8 8 15 21 22 22 20 20 17 16 16 18 17 16 15 13 11
5 5 4 4 4 3 4 4 5 5 3 1 2 4 3 3 3 2 4 5 8 6 7 9 11 10 10 8 13 15 19 19 18 18 18 16 17 18 17 15 14 12 10
2 3 4 4 4 3 5 5 5 4 4 4 0 2 2 5 4 5 5 5 7 8 9 7 9 10 9 6 12 13 15 18 19 18 18 17 17 17 17 15 14 11 10
0 3 4 4 3 1 3 5 5 5 3 4 4 2 1 3 4 3 6 7 6 5 6 8 8 8 9 7 7 9 13 13 15 15 15 15 15 16 15 14 13 12 10
1 3 4 4 2 3 4 3 4 5 3 4 3 4 4 4 4 5 7 9 9 5 6 6 8 8 6 6 9 13 13 12 11 11 12 11 12 13 13 12 11 10 9
2 3 3 3 2 2 4 4 4 4 5 3 4 3 2 4 5 11 6 5 5 4 4 5 3 6 6 4 7 10 13 11 11 10 10 11 11 11 10 9 9 9 9
3 3 4 3 3 3 5 5 4 3 4 4 5 4 4 5 7 12 7 9 8 3 4 4 3 5 6 5 7 13 8 12 11 10 10 9 8 8 8 7 8 8 8
2 4 4 3 2 3 5 6 4 5 6 5 5 7 6 5 5 6 10 11 9 7 4 3 3 4 6 5 6 5 4 9 9 9 8 8 7 7 7 8 8 8 9
2 4 4 4 4 4 5 6 5 5 8 5 6 8 7 6 7 7 6 6 7 7 4 2 2 4 6 5 6 4 5 6 7 8 8 7 7 8 9 8 8 10 10
4 4 5 5 5 6 6 7 6 6 9 8 8 8 9 9 8 7 7 8 8 6 8 4 3 4 4 6 4 2 3 4 3 6 7 8 9 9 8 10 10 11 9
4 5 5 5 6 6 6 7 8 10 10 8 6 9 9 8 9 8 7 8 8 6 8 10 3 2 3 4 5 5 3 2 3 7 10 9 10 10 10 11 11 13 10
6 6 5 5 6 7 8 6 7 8 9 8 6 8 9 11 10 8 8 8 7 7 7 5 4 2 2 2 2 1 1 3 2 5 6 7 9 10 13 12 12 12 12
6 6 5 5 5 6 7 7 7 6 6 6 5 7 8 10 11 10 9 8 7 8 7 4 3 3 2 2 2 3 3 1 2 2 5 6 8 9 9 11 12 14 15
5 5 6 6 6 6 6 8 7 7 6 7 6 6 5 7 10 9 8 7 8 5 5 3 2 2 3 2 4 3 2 1 2 3 1 2 2 4 6 9 14 13 9
4 5 6 6 5 4 12 10 8 7 5 6 7 6 8 12 11 12 8 6 5 7 6 4 3 3 3 3 3 3 3 2 1 1 2 3 3 4 4 4 6 7 9
5 6 6 6 5 6 13 14 12 5 4 6 6 7 8 6 8 7 5 8 9 10 8 6 6 5 4 6 5 3 3 4 3 2 2 3 2 4 4 4 6 8 7
6 5 6 6 6 3 8 13 13 10 6 5 6 6 7 9 7 7 6 4 2 4 6 5 7 7 6 7 6 5 6 3 1 2 3 2 5 4 4 4 7 8 9
4 4 5 7 7 3 7 11 10 7 7 6 5 5 7 7 9 11 7 6 6 4 3 4 9 8 6 5 5 5 4 4 1 1 3 4 1 3 2 2 3 4 4
6 5 5 5 8 5 6 10 8 5 5 4 3 4 9 9 12 10 8 7 6 3 3 2 3 5 5 6 8 5 5 3 3 2 2 3 2 3 4 2 3 3 5
Wind_Direction
228 222 250 250 245 228 217 211 200 195 198 198 211 215 231 219 224 216 214 207 194 190 178 168 174 173 182 176 168 162 158 149 149 139 132 135 126 129 127 121 124 120 114
208 220 234 237 244 208 217 202 200 197 205 208 226 234 240 230 220 213 216 211 197 189 190 188 183 180 175 156 150 157 161 160 147 133 133 134 134 131 127 127 123 119 114
202 213 224 236 238 220 218 212 210 194 209 217 232 232 210 231 220 198 198 180 198 193 186 190 193 191 164 159 152 164 169 152 139 140 137 132 132 132 125 128 124 120 119
210 210 217 232 234 215 202 195 178 200 215 211 230 207 201 213 206 178 152 165 181 162 179 174 163 158 169 154 162 175 163 147 143 141 138 129 140 129 130 128 125 120 123
222 212 221 232 219 212 204 195 164 164 189 225 231 187 200 173 196 142 151 155 148 137 154 164 153 142 145 160 173 166 150 142 145 144 137 138 139 133 132 131 124 127 124
223 212 224 229 189 191 188 162 157 185 186 218 224 172 188 156 204 153 147 151 117 145 143 148 153 150 156 167 167 158 149 147 142 141 135 135 140 135 139 130 129 131 126
228 210 200 220 186 183 194 171 156 179 233 165 102 125 104 119 162 131 167 129 110 102 116 132 135 146 161 166 165 155 151 140 143 135 139 134 141 145 136 133 137 136 137
213 199 202 214 189 164 180 174 148 118 180 185 143 135 105 20 32 161 119 131 131 114 132 124 124 127 154 156 165 139 134 137 137 141 134 141 147 139 136 140 141 145 147
171 184 198 205 178 176 190 175 162 151 153 86 177 148 127 175 127 94 137 140 124 118 117 131 123 130 129 141 120 145 134 138 136 143 143 157 149 141 146 151 148 153 158
169 163 173 175 173 180 189 183 173 156 142 158 357 32 182 157 157 149 135 123 122 123 128 131 132 139 131 130 140 143 139 139 148 151 157 156 152 153 156 158 155 165 176
139 164 154 175 154 161 172 179 158 150 149 136 152 162 98 54 120 146 131 132 113 111 121 142 145 138 141 128 139 161 133 136 144 155 158 159 159 165 166 163 166 178 184
66 118 122 140 148 142 156 190 148 138 136 127 155 173 168 161 163 104 131 131 135 120 118 123 136 137 117 141 152 149 130 126 132 155 160 157 173 173 172 172 180 187 197
76 118 101 105 130 116 133 166 152 137 155 170 158 180 128 117 126 110 130 109 117 112 108 80 91 125 128 133 131 134 126 139 154 162 162 175 182 180 178 182 188 204 207
123 128 107 96 52 83 86 97 107 107 109 106 140 107 100 124 135 139 126 132 113 95 77 99 51 115 115 121 139 129 148 157 165 170 171 177 186 182 182 185 212 218 213
133 122 119 126 127 106 100 102 99 98 84 93 91 89 89 82 97 109 138 144 140 139 115 98 111 119 120 131 133 122 152 167 166 163 175 179 186 190 191 200 218 223 219
124 134 129 145 133 110 109 98 85 78 97 98 109 108 99 95 96 106 112 112 126 129 114 111 89 121 115 113 140 147 167 156 174 179 182 180 191 201 208 207 220 231 227
151 149 147 140 139 124 123 97 83 89 101 99 115 117 108 108 105 97 97 109 110 111 125 92 94 101 85 123 142 176 170 189 195 183 189 194 202 209 214 220 229 235 233
145 144 135 127 119 117 110 115 109 115 118 113 106 122 118 110 102 108 106 110 103 119 124 118 100 105 107 166 182 180 181 173 203 216 208 209 216 218 225 231 231 233 232
134 127 125 124 124 124 117 116 115 111 126 134 125 130 129 124 118 117 107 109 121 116 110 119 122 97 104 164 149 83 168 233 219 232 226 227 239 233 233 235 239 241 236
128 130 135 130 122 122 124 118 117 111 106 117 106 122 137 134 129 126 117 117 114 111 125 127 125 135 152 112 112 157 232 158 267 232 229 223 230 239 247 252 252 249 242
137 143 137 127 129 132 131 131 126 122 124 113 102 117 109 114 122 121 126 128 129 139 151 145 115 116 150 154 189 196 161 81 274 230 259 256 248 265 257 244 255 264 269
127 120 127 128 122 126 137 117 124 117 127 127 112 102 118 117 110 121 121 139 153 151 155 147 153 177 195 186 164 174 148 101 333 18 176 289 189 268 265 250 273 297 280
110 120 127 122 113 130 137 130 123 130 110 111 114 127 132 141 141 160 165 196 190 203 181 150 169 186 172 200 159 166 154 179 190 284 144 277 19 355 330 335 336 323 298
133 127 125 120 121 133 151 145 144 153 143 144 150 150 141 163 182 154 176 197 179 169 174 197 186 184 202 172 183 172 166 154 14 16 57 59 13 357 2 21 36 25 8
124 130 132 128 124 108 176 155 135 132 138 151 158 164 150 162 184 174 154 135 101 87 40 38 156 163 183 157 138 121 108 91 39 317 353 75 318 266 228 310 289 297 320
147 141 144 141 132 120 148 156 132 130 130 133 134 162 162 156 163 172 143 143 125 163 146 81 40 36 57 70 70 77 138 130 129 52 306 86 14 359 343 265 310 333 353